Flag for Switzerland Weather past 2 weeks in Grenchen, Solothurn, Switzerland

Now
44 °F

Quite cool.


Feels Like: 43 °F
Forecast: 39 / 67 °F
Wind: 3 mph from Northeast

Location: Grenchen

Current Time: Apr 20, 2015 at 3:36:09 AM

Latest Report: Apr 20, 2015 at 2:00 AM


Visibility: N/A

Pressure: 30.18 "Hg

Humidity: 65%

Dew point: 33 °F

Location of GrenchenLocation

Historic Weather in Grenchen — Graph

°F

Grenchen temperature yesterday

Maximum temperature yesterday: 61 °F (at 6:00 PM)
Minimum temperature yesterday: 36 °F (at 7:00 AM)
Average temperature yesterday: 49 °F

Past Weeks' High & Low Weather Summary

 TemperatureHumidityPressure
High73 °F (Apr 15, 5:00 PM)100% (Apr 10, 7:00 AM)30.60 "Hg (Apr 10, 7:00 AM)
Low28 °F (Apr 7, 7:00 AM)23% (Apr 8, 3:00 PM)29.96 "Hg (Apr 17, 6:00 PM)
Average49 °F67%30.27 "Hg
* Reported Apr 5 2:00 AM — Apr 20 2:00 AM, Grenchen, Weather by CustomWeather, © 2015

Note: Actual official high and low records may vary slightly from our data, if they occured in-between our weather recording intervals... More about our weather records

Advertising

Grenchen weather history for previous 24 hours

 ConditionsComfort  
Time TempWeatherWind HumidityBarometerVisibility
2:00 AM
Mon, Apr 20
44 °FQuite cool.3 mph65%30.18 "HgN/A
1:00 AM47 °FCool.2 mph59%30.16 "HgN/A
12:00 AM46 °FCool.3 mph61%30.14 "HgN/A
11:00 PM
Sun, Apr 19
41 °FQuite cool.5 mph79%30.14 "HgN/A
10:00 PM47 °FCool.2 mph69%30.10 "HgN/A
9:00 PM51 °FCool.5 mph55%30.07 "HgN/A
8:00 PM54 °FCool.6 mph57%30.04 "HgN/A
7:00 PM60 °FRefreshingly cool.9 mph41%30.00 "HgN/A
6:00 PM61 °FRefreshingly cool.8 mph41%29.99 "HgN/A
5:00 PM61 °FRefreshingly cool.8 mph41%29.99 "HgN/A
4:00 PM60 °FRefreshingly cool.9 mph43%30.00 "HgN/A
3:00 PM58 °FRefreshingly cool.7 mph43%30.01 "HgN/A
2:00 PM57 °FRefreshingly cool.9 mph46%30.02 "HgN/A
1:00 PM55 °FCool.10 mph47%30.04 "HgN/A
12:00 PM52 °FCool.10 mph49%30.06 "HgN/A
11:00 AM49 °FCool.10 mph53%30.07 "HgN/A
10:00 AM46 °FCool.14 mph54%30.07 "HgN/A
9:00 AM43 °FQuite cool.13 mph59%30.08 "HgN/A
8:00 AM40 °FQuite cool.7 mph66%30.09 "HgN/A
7:00 AM36 °FChilly.6 mph72%30.10 "HgN/A
6:00 AM40 °FChilly.13 mph62%30.09 "HgN/A
5:00 AM41 °FQuite cool.14 mph58%30.09 "HgN/A
4:00 AM42 °FQuite cool.15 mph56%30.10 "HgN/A
3:00 AM43 °FQuite cool.17 mph54%30.10 "HgN/A
Weather by CustomWeather, © 2015

See weather overviewHow to use our weather pages